Date String (YYYY-MM-DD hh:mm:ss) UTC,Instrument flags,Ambient pressure (hPa),Sample flow (lpm),Bypass flow (lpm),Sample temperature (°C),Ambient temperature (°C),ASC tube jacket temperature (°C),LED temperature (°C),Box temperature (°C),Sample RH (%),Span deviation,Mass concentration (μg/m³),Mass concentration (μg/m³),Mass concentration (μg/m³)
DateTimeUTC,F1_M11,P_M11,Q1_M11,Q2_M11,T1_M11,T2_M11,T3_M11,T4_M11,T5_M11,U1_M11,ZSPAN_M11,X0_M11,X2_M11,X1_M11
2021-11-29 08:00:00,,0829.2,4.99,0.00,29.4,28.6,00.0,38.3,31.1,10.1,0000.0,0001.97,0000.52,0000.23
2021-11-29 08:01:00,,0828.7,5.01,0.00,29.4,28.6,00.0,38.3,31.1,10.1,0000.0,0002.00,0000.55,0000.23
2021-11-29 08:02:00,,0828.7,5.00,0.00,29.4,28.6,00.0,38.3,31.1,10.1,0000.0,0002.01,0000.55,0000.23
2021-11-29 08:03:00,,0828.7,5.00,0.00,29.4,28.6,00.0,38.4,31.1,10.1,0000.0,0001.34,0000.49,0000.23
2021-11-29 08:04:00,,0828.7,4.99,0.00,29.4,28.6,00.0,38.4,31.1,10.1,0000.0,0001.14,0000.49,0000.24
2021-11-29 08:05:00,,0828.7,5.01,0.00,29.4,28.5,00.0,38.4,31.1,10.1,0000.0,0001.14,0000.49,0000.24
2021-11-29 08:06:00,,0828.9,5.02,0.00,29.4,28.5,00.0,38.4,31.1,10.2,0000.0,0001.02,0000.46,0000.24
2021-11-29 08:07:00,,0828.8,5.00,0.00,29.4,28.5,00.0,38.4,31.1,10.2,0000.0,0000.82,0000.39,0000.24
2021-11-29 08:08:00,,0829.0,4.99,0.00,29.4,28.5,00.0,38.4,31.1,10.1,0000.0,0000.75,0000.36,0000.23
2021-11-29 08:09:00,,0829.1,5.00,0.00,29.4,28.5,00.0,38.4,31.1,10.2,0000.0,0000.83,0000.36,0000.23
2021-11-29 08:10:00,,0829.1,5.00,0.00,29.4,28.5,00.0,38.4,31.1,10.3,0000.0,0000.76,0000.37,0000.23
2021-11-29 08:11:00,,0829.2,5.00,0.00,29.4,28.5,00.0,38.4,31.1,10.3,0000.0,0000.77,0000.38,0000.23
2021-11-29 08:12:00,,0829.1,5.00,0.00,29.4,28.5,00.0,38.4,31.1,10.3,0000.0,0000.79,0000.35,0000.23
2021-11-29 08:13:00,,0828.7,5.01,0.00,29.4,28.5,00.0,38.4,31.1,10.3,0000.0,0000.79,0000.36,0000.23
2021-11-29 08:14:00,,0828.8,4.99,0.00,29.4,28.5,00.0,38.4,31.1,10.3,0000.0,0000.81,0000.37,0000.23
2021-11-29 08:15:00,,0828.7,5.00,0.00,29.4,28.5,00.0,38.4,31.1,10.3,0000.0,0001.05,0000.39,0000.23
2021-11-29 08:16:00,,0828.7,5.00,0.00,29.4,28.5,00.0,38.4,31.1,10.3,0000.0,0001.08,0000.39,0000.23
2021-11-29 08:17:00,,0828.7,5.01,0.00,29.4,28.5,00.0,38.3,31.1,10.4,0000.0,0001.10,0000.40,0000.24
2021-11-29 08:18:00,,0828.7,5.00,0.00,29.4,28.5,00.0,38.4,31.1,10.3,0000.0,0001.07,0000.39,0000.23
2021-11-29 08:19:00,,0828.9,5.00,0.00,29.4,28.5,00.0,38.4,31.1,10.3,0000.0,0001.03,0000.37,0000.23
2021-11-29 08:20:00,,0828.8,5.00,0.00,29.4,28.5,00.0,38.4,31.1,10.3,0000.0,0000.90,0000.37,0000.23
2021-11-29 08:21:00,,0828.7,5.01,0.00,29.4,28.5,00.0,38.4,31.1,10.3,0000.0,0000.86,0000.36,0000.23
2021-11-29 08:22:00,,0828.7,5.00,0.00,29.4,28.5,00.0,38.4,31.1,10.4,0000.0,0000.85,0000.35,0000.22
2021-11-29 08:23:00,,0828.8,4.98,0.00,29.4,28.5,00.0,38.4,31.1,10.3,0000.0,0000.81,0000.36,0000.23
2021-11-29 08:24:00,,0829.2,5.01,0.00,29.4,28.5,00.0,38.4,31.1,10.4,0000.0,0000.79,0000.34,0000.22
2021-11-29 08:25:00,,0829.0,5.00,0.00,29.4,28.5,00.0,38.4,31.1,10.3,0000.0,0001.50,0000.33,0000.22
2021-11-29 08:26:00,,0828.7,4.99,0.00,29.4,28.5,00.0,38.4,31.2,10.4,0000.0,0001.20,0000.29,0000.22
2021-11-29 08:27:00,,0828.8,5.01,0.00,29.4,28.6,00.0,38.4,31.2,10.4,0000.0,0001.19,0000.29,0000.22
2021-11-29 08:28:00,,0828.9,5.01,0.00,29.4,28.6,00.0,38.4,31.1,10.4,0000.0,0001.15,0000.27,0000.21
2021-11-29 08:29:00,,0828.9,4.98,0.00,29.4,28.6,00.0,38.4,31.1,10.3,0000.0,0001.15,0000.28,0000.22
2021-11-29 08:30:00,,0829.1,5.00,0.00,29.4,28.6,00.0,38.4,31.1,10.3,0000.0,0001.24,0000.31,0000.22
2021-11-29 08:31:00,,0829.1,5.00,0.00,29.4,28.5,00.0,38.4,31.1,10.3,0000.0,0001.32,0000.33,0000.23
2021-11-29 08:32:00,,0829.1,5.00,0.00,29.4,28.5,00.0,38.4,31.1,10.3,0000.0,0001.36,0000.34,0000.23
2021-11-29 08:33:00,,0829.2,5.00,0.00,29.4,28.5,00.0,38.4,31.1,10.3,0000.0,0001.38,0000.34,0000.23
2021-11-29 08:34:00,,0829.2,5.00,0.00,29.4,28.5,00.0,38.4,31.1,10.3,0000.0,0001.44,0000.36,0000.23
2021-11-29 08:35:00,,0828.7,5.00,0.00,29.4,28.5,00.0,38.4,31.1,10.3,0000.0,0001.46,0000.39,0000.25
2021-11-29 08:36:00,,0828.7,5.00,0.00,29.4,28.5,00.0,38.4,31.1,10.3,0000.0,0000.78,0000.42,0000.27
2021-11-29 08:37:00,,0829.1,4.99,0.00,29.4,28.5,00.0,38.4,31.1,10.3,0000.0,0000.82,0000.43,0000.27
2021-11-29 08:38:00,,0829.2,5.00,0.00,29.4,28.5,00.0,38.4,31.1,10.3,0000.0,0000.94,0000.46,0000.29
2021-11-29 08:39:00,,0829.0,5.01,0.00,29.4,28.5,00.0,38.4,31.1,10.4,0000.0,0001.02,0000.50,0000.30
2021-11-29 08:40:00,,0829.2,5.00,0.00,29.4,28.5,00.0,38.4,31.1,10.3,0000.0,0001.19,0000.53,0000.31
2021-11-29 08:41:00,,0829.2,4.99,0.00,29.4,28.5,00.0,38.4,31.1,10.4,0000.0,0001.95,0000.51,0000.30
2021-11-29 08:42:00,,0829.2,5.01,0.00,29.4,28.5,00.0,38.4,31.1,10.4,0000.0,0001.96,0000.50,0000.31
2021-11-29 08:43:00,,0828.7,5.00,0.00,29.4,28.5,00.0,38.4,31.1,10.4,0000.0,0001.90,0000.48,0000.31
2021-11-29 08:44:00,,0829.1,4.99,0.00,29.4,28.5,00.0,38.4,31.1,10.4,0000.0,0001.89,0000.48,0000.31
2021-11-29 08:45:00,,0829.2,5.00,0.00,29.4,28.5,00.0,38.4,31.1,10.4,0000.0,0001.82,0000.47,0000.31
2021-11-29 08:46:00,,0829.2,5.00,0.00,29.4,28.5,00.0,38.4,31.1,10.4,0000.0,0001.76,0000.44,0000.30
2021-11-29 08:47:00,,0829.2,5.01,0.00,29.3,28.5,00.0,38.4,31.0,10.4,0000.0,0001.70,0000.41,0000.27
2021-11-29 08:48:00,,0829.2,5.00,0.00,29.3,28.5,00.0,38.4,31.0,10.4,0000.0,0001.88,0000.41,0000.27
2021-11-29 08:49:00,,0829.2,5.00,0.00,29.3,28.5,00.0,38.4,31.0,10.4,0000.0,0001.77,0000.40,0000.25
2021-11-29 08:50:00,,0829.1,5.02,0.00,29.3,28.4,00.0,38.3,31.1,10.4,0000.0,0001.75,0000.39,0000.24
2021-11-29 08:51:00,,0828.9,4.99,0.00,29.3,28.4,00.0,38.3,31.1,10.4,0000.0,0001.70,0000.36,0000.23
2021-11-29 08:52:00,,0828.7,4.99,0.00,29.3,28.4,00.0,38.3,31.0,10.4,0000.0,0001.00,0000.37,0000.23
2021-11-29 08:53:00,,0828.7,4.99,0.00,29.3,28.5,00.0,38.3,31.1,10.4,0000.0,0000.74,0000.37,0000.24
2021-11-29 08:54:00,,0828.9,5.00,0.00,29.3,28.5,00.0,38.3,31.1,10.4,0000.0,0000.74,0000.37,0000.23
2021-11-29 08:55:00,,0829.2,5.00,0.00,29.3,28.5,00.0,38.3,31.1,10.4,0000.0,0000.74,0000.37,0000.23
2021-11-29 08:56:00,,0829.3,5.01,0.00,29.3,28.5,00.0,38.3,31.0,10.4,0000.0,0001.29,0000.36,0000.23
2021-11-29 08:57:00,,0829.4,4.99,0.00,29.3,28.5,00.0,38.3,31.1,10.4,0000.0,0001.43,0000.37,0000.23
2021-11-29 08:58:00,,0829.0,5.00,0.00,29.4,28.5,00.0,38.3,31.1,10.4,0000.0,0001.45,0000.38,0000.23
2021-11-29 08:59:00,,0828.8,4.99,0.00,29.4,28.5,00.0,38.3,31.1,10.4,0000.0,0001.34,0000.38,0000.22
